Location: Joplin
(37.0842°N, 94.5131°W)
Time: 01:00:13
(UTC-05:00)

Envisat - Pass Details

Date: 02 October 2021
Orbit: 764 x 766 km, 98.2° (Epoch: 27 October)

Event Time Altitude Azimuth Distance (km) Brightness Sun altitude
Rises 06:19:04 0° 14° (NNE) 3,236 6.5 -11.9°
Reaches altitude 10° 06:21:23 10° 16° (NNE) 2,306 5.7 -11.4°
Maximum altitude 06:26:28 77° 102° (ESE) 787 3.2 -10.4°
Drops below altitude 10° 06:31:31 10° 189° (S) 2,290 5.4 -9.4°
Sets 06:33:49 0° 190° (S) 3,212 6.1 -9.0°
